time_stamp(utc),avg(mph),gust(mph),direction(deg),12m_air_temp(f),sonic_u(cm/s),sonic_v(cm/s),sonic_w(cm/s),pressure,2m_air_temp(f),pyranometer(W/m^2)
"2020-04-08 00:02:45+00",9.8,11.8,,50.3,203,-936,314,1007.81,50.1,0
"2020-04-08 00:07:45+00",9.3,12.3,,50.2,-84,-407,44,1007.63,50,0
"2020-04-08 00:12:45+00",10.6,12.6,,50.1,-93,-451,-18,1007.66,49.9,0
"2020-04-08 00:17:45+00",10.9,13.9,,50.1,-92,-456,-10,1007.59,49.8,0
"2020-04-08 00:22:45+00",9.8,10.8,,50,-59,-410,-12,1007.57,49.8,0
"2020-04-08 00:27:45+00",9.2,11.2,,50,-84,-386,-2,1007.47,49.8,0
"2020-04-08 00:32:45+00",10.3,13.3,,49.9,-89,-414,-5,1007.52,49.7,0
"2020-04-08 00:37:45+00",9.7,11.7,,49.9,-82,-398,2,1007.67,49.6,0
"2020-04-08 00:42:45+00",8.7,11.7,,49.8,-86,-359,-1,1007.55,49.6,0
"2020-04-08 00:47:45+00",8.5,10.5,,49.8,-71,-346,1,1007.55,49.6,0
"2020-04-08 00:52:45+00",11.1,14.1,,49.9,-96,-460,-9,1007.47,49.6,0
"2020-04-08 00:57:45+00",8.9,11.9,,49.9,-80,-368,-1,1007.48,49.6,0
"2020-04-08 01:02:45+00",9.1,11.1,,49.9,-101,-376,1,1007.57,49.6,0
"2020-04-08 01:07:45+00",8.8,10.8,,50,-110,-358,14,1007.54,49.7,0
"2020-04-08 01:12:45+00",9.5,12.5,,50.1,-159,-375,5,1007.58,49.8,0
"2020-04-08 01:17:45+00",9.7,10.7,,50.2,-162,-385,3,1007.46,49.9,0
"2020-04-08 01:22:45+00",10.6,11.6,,50.4,-197,-411,1,1007.32,50,0
"2020-04-08 01:27:45+00",10.8,12.8,,50.5,-217,-413,1,1007.27,50.1,0
"2020-04-08 01:32:45+00",10.9,12.9,,50.7,-225,-419,10,1007.14,50.2,0
"2020-04-08 01:37:45+00",11.5,13.5,,50.8,-234,-437,10,1007.13,50.4,0
"2020-04-08 01:42:45+00",11.2,13.2,,50.9,-238,-442,15,1007,50.5,0
"2020-04-08 01:47:45+00",10.9,12.9,,50.9,-215,-449,32,1006.87,50.6,0
"2020-04-08 01:52:45+00",10.9,12.9,,51,-40,-769,207,1006.68,50.7,0
"2020-04-08 01:57:45+00",11.1,12.1,,51,460,-1613,681,1006.47,50.7,0
"2020-04-08 02:02:45+00",10.3,12.3,,51.1,1822,-3846,1905,1006.39,50.8,0
"2020-04-08 02:07:45+00",9.1,11.1,,51.1,1801,-3841,1967,1006.38,50.9,0
"2020-04-08 02:12:45+00",9.5,10.5,,51.2,1173,-2892,1437,1006.48,50.9,0
"2020-04-08 02:17:45+00",8.2,10.2,,51.1,820,-2118,1077,1006.49,51,0
"2020-04-08 02:22:45+00",8.9,9.9,,51.2,53,-843,343,1006.41,50.9,0
"2020-04-08 02:27:45+00",10.0,11.0,,51.4,-285,-342,58,1006.2,50.9,0
"2020-04-08 02:32:45+00",7.8,8.8,,51.4,-215,-278,52,1006.06,50.9,0
"2020-04-08 02:37:45+00",8.7,10.7,,51.5,-100,-549,209,1005.98,50.9,0
"2020-04-08 02:42:45+00",10.3,12.3,,51.5,218,-1265,618,1006.18,51,0
"2020-04-08 02:47:45+00",11.7,12.7,,51.7,156,-1246,588,1006.1,51,0
"2020-04-08 02:52:45+00",11.7,14.7,,51.6,355,-1602,740,1005.88,51.1,0
"2020-04-08 02:57:45+00",12.4,14.4,,51.5,-42,-951,368,1005.77,51,0
"2020-04-08 03:02:45+00",11.0,13.0,,51.3,-306,-380,60,1005.63,51,0
"2020-04-08 03:07:45+00",11.2,13.2,,51.2,-361,-315,15,1005.54,50.9,0
"2020-04-08 03:12:45+00",11.4,13.4,,51.2,-373,-318,20,1005.45,50.8,0
"2020-04-08 03:17:45+00",10.1,12.1,,51.1,-323,-309,10,1005.24,50.7,0
"2020-04-08 03:22:45+00",10.4,12.4,,51.1,-326,-332,7,1005.2,50.6,0
"2020-04-08 03:27:45+00",10.4,10.4,,51.1,-307,-358,4,1005.03,50.5,0
"2020-04-08 03:32:45+00",9.5,10.5,,51,-282,-323,9,1004.87,50.5,0
"2020-04-08 03:37:45+00",9.5,10.5,,51,-253,-346,3,1004.63,50.4,0
"2020-04-08 03:42:45+00",8.9,9.9,,50.9,-277,-283,5,1004.67,50.3,0
"2020-04-08 03:47:45+00",8.8,9.8,,50.9,-274,-259,3,1004.54,50.3,0
"2020-04-08 03:52:45+00",9.0,10.0,,51,-293,-242,13,1004.55,50.3,0
"2020-04-08 03:57:45+00",9.0,10.0,,51,-307,-234,17,1004.58,50.3,0
"2020-04-08 04:02:45+00",9.1,10.1,,51.1,-292,-257,10,1004.39,50.2,0
"2020-04-08 04:07:45+00",7.6,7.6,,50.9,-245,-209,13,1004.42,50.1,0
"2020-04-08 04:12:45+00",6.8,7.8,,50.8,-260,-158,13,1004.29,50,0
"2020-04-08 04:17:45+00",7.7,8.7,,50.8,-267,-191,15,1004.23,50,0
"2020-04-08 04:22:45+00",5.7,6.7,,51,-225,-120,10,1004.12,50,0
"2020-04-08 04:27:45+00",5.9,6.9,,50.8,-110,-224,4,1003.97,49.9,0
"2020-04-08 04:32:45+00",6.3,7.3,,50.7,-153,-228,-3,1003.66,49.8,0
"2020-04-08 04:37:45+00",7.0,7.0,,50.8,-197,-246,3,1003.48,49.9,0
"2020-04-08 04:42:45+00",7.7,8.7,,51,-237,-251,6,1003.74,49.9,0
"2020-04-08 04:47:45+00",8.9,8.9,,51.3,-281,-308,9,1003.64,49.9,0
"2020-04-08 04:52:45+00",8.5,9.5,,51.5,-278,-236,6,1003.38,50,0
"2020-04-08 04:57:45+00",6.8,7.8,,51.3,-199,-231,9,1003.07,50.1,0
"2020-04-08 05:02:45+00",8.6,9.6,,51.3,-279,-233,8,1002.99,50.1,0
"2020-04-08 05:07:45+00",8.2,8.2,,51.4,-260,-271,6,1002.89,50,0
"2020-04-08 05:12:45+00",6.9,7.9,,51.4,-183,-245,2,1002.54,50.1,0
"2020-04-08 05:17:45+00",8.7,9.7,,51.4,-243,-298,6,1002.51,49.9,0
"2020-04-08 05:22:45+00",9.1,10.1,,51.5,-287,-271,7,1002.39,49.9,0
"2020-04-08 05:27:45+00",8.5,8.5,,51.6,-272,-278,8,1002.44,50.1,0
"2020-04-08 05:32:45+00",7.5,8.5,,51.4,-236,-232,7,1002.4,50.1,0
"2020-04-08 05:37:45+00",8.6,9.6,,51.3,-255,-297,0,1002.3,50.1,0
"2020-04-08 05:42:45+00",9.4,10.4,,51.5,-278,-324,2,1002.08,50.3,0
"2020-04-08 05:47:45+00",8.6,9.6,,51.7,-257,-293,4,1002.02,50.4,0
"2020-04-08 05:52:45+00",9.2,11.2,,51.8,-315,-237,18,1002.1,50.6,0
"2020-04-08 05:57:45+00",9.0,10.0,,52,-312,-231,17,1001.97,50.7,0
"2020-04-08 06:02:45+00",9.2,10.2,,51.9,-333,-220,15,1001.93,50.8,0
"2020-04-08 06:07:45+00",8.8,9.8,,52,-342,-203,21,1001.88,50.9,0
"2020-04-08 06:12:45+00",11.1,13.1,,52.4,-439,-260,20,1001.98,51,0
"2020-04-08 06:17:45+00",12.1,13.1,,52.6,-427,-308,20,1001.75,51.4,0
"2020-04-08 06:22:45+00",12.8,13.8,,52.8,-435,-337,11,1001.56,51.6,0
"2020-04-08 06:27:45+00",10.9,12.9,,52.7,-362,-306,21,1001.52,51.8,0
"2020-04-08 06:32:45+00",9.3,10.3,,52.8,-295,-288,19,1001.24,51.9,0
"2020-04-08 06:37:45+00",11.3,12.3,,53.2,-362,-337,5,1000.97,52.2,0
"2020-04-08 06:42:45+00",10.7,11.7,,53.4,-339,-339,6,1000.72,52.5,0
"2020-04-08 06:47:45+00",10.4,11.4,,53.3,-329,-327,7,1000.65,52.6,0
"2020-04-08 06:52:45+00",11.1,13.1,,53.3,-392,-284,13,1000.73,52.6,0
"2020-04-08 06:57:45+00",14.9,16.9,,53.4,-626,-179,41,1001.36,52.7,0
"2020-04-08 07:02:45+00",17.9,19.9,,54.1,-766,-359,28,1000.93,52.9,0
"2020-04-08 07:07:45+00",18.2,20.2,,54.6,-1935,2018,-1179,1000.68,53.3,0
"2020-04-08 07:12:45+00",17.0,19.0,,54.9,-2124,2300,-1438,1000.37,53.5,0
"2020-04-08 07:17:45+00",14.1,16.1,,55.1,-986,508,-501,1000.08,53.7,0
"2020-04-08 07:22:45+00",13.6,15.6,,55.1,-433,-447,20,999.89,53.7,0
"2020-04-08 07:27:45+00",12.5,13.5,,55.3,-776,271,-353,999.89,53.8,0
"2020-04-08 07:32:45+00",11.3,12.3,,55.4,-1850,2250,-1386,999.81,53.8,0
"2020-04-08 07:37:45+00",11.8,12.8,,55.2,-1088,899,-629,999.98,53.8,0
"2020-04-08 07:42:45+00",13.2,15.2,,55.2,-2071,2484,-1526,1000.22,53.8,0
"2020-04-08 07:47:45+00",13.1,14.1,,55,-1214,1035,-718,1000.31,53.8,0
"2020-04-08 07:52:45+00",11.8,13.8,,54.9,-799,369,-374,1000.28,53.7,0
"2020-04-08 07:57:45+00",8.9,9.9,,54.9,-249,-305,5,999.71,53.8,0
"2020-04-08 08:02:45+00",5.1,6.1,,54.9,-169,-132,18,999.53,53.8,0
"2020-04-08 08:07:45+00",1.5,1.5,,54.8,-39,-39,7,999.2,53.8,0
"2020-04-08 08:12:45+00",3.5,4.5,,54.9,-140,52,6,999.4,53.7,0
"2020-04-08 08:17:45+00",6.5,7.5,,55.1,-737,-732,-417,999.87,53.7,0
"2020-04-08 08:22:45+00",3.2,4.2,,55.3,-200,161,-60,999.49,53.6,0
"2020-04-08 08:27:45+00",6.1,7.1,,55.3,25,45,123,999.66,53.8,0
"2020-04-08 08:37:45+00",6.1,6.1,,55.1,-16,257,8,999.47,54,0
"2020-04-08 08:42:45+00",2.5,2.5,,55.1,-54,82,-1,999.69,54,0
"2020-04-08 08:47:45+00",2.9,2.9,,55.1,15,107,0,999.4,54,0
"2020-04-08 08:52:45+00",10.7,12.7,,55.1,113,440,2,999.45,54,0
"2020-04-08 08:57:45+00",5.3,6.3,,55.8,52,204,3,999.03,54,0
"2020-04-08 09:02:45+00",3.5,3.5,,56.3,-21,134,1,999.06,54.1,0
"2020-04-08 09:07:45+00",5.6,6.6,,56.2,166,116,48,998.88,54.1,0
"2020-04-08 09:37:45+00",18.2,20.2,,56.2,-639,768,-69,1000.68,54.8,0
"2020-04-08 09:42:45+00",12.9,15.9,,55.9,-417,534,-28,1000.15,54.7,0
"2020-04-08 09:47:45+00",7.1,10.1,,55.6,-163,255,25,999.73,54.7,0
"2020-04-08 09:52:45+00",5.6,7.6,,55.5,-169,178,19,999.3,54.6,0
"2020-04-08 09:57:45+00",5.2,5.2,,55.4,-190,122,20,999.23,54.5,0
"2020-04-08 10:02:45+00",2.2,3.2,,55.3,-64,34,4,998.79,54.4,0
"2020-04-08 10:07:45+00",2.3,3.3,,55.2,-17,-87,6,998.42,54.1,0
"2020-04-08 10:12:45+00",3.4,4.4,,55.2,19,-133,2,998.13,54.1,0
"2020-04-08 10:17:45+00",10.4,11.4,,55,183,-417,-9,997.16,53.2,0
"2020-04-08 10:22:45+00",13.5,14.5,,54.4,304,-511,-14,996.2,53,0
"2020-04-08 10:27:45+00",11.4,13.4,,53.9,264,-427,-7,996.19,53.1,0
"2020-04-08 10:32:45+00",6.6,7.6,,53.9,178,-231,-12,996.86,53.2,0
"2020-04-08 10:37:45+00",4.5,5.5,,53.7,40,-181,3,997.52,53.2,0
"2020-04-08 10:42:45+00",3.7,4.7,,53.3,23,-156,-2,997.76,52.8,0
"2020-04-08 10:47:45+00",3.6,4.6,,53.4,-138,-39,10,998.46,52.8,0
"2020-04-08 10:52:45+00",6.7,6.7,,53.3,-239,-159,27,998.74,52.7,0
"2020-04-08 10:57:45+00",7.8,8.8,,53.3,-279,-189,19,998.75,52.5,0
"2020-04-08 11:02:45+00",7.5,8.5,,53.4,-324,-3,17,998.98,52.4,0
"2020-04-08 11:07:45+00",8.3,9.3,,53.3,-343,147,29,999.27,52.5,0
"2020-04-08 11:12:45+00",8.6,8.6,,53.7,-371,108,25,999.5,52.7,0
"2020-04-08 11:17:45+00",8.9,8.9,,54.2,-395,60,20,999.5,52.9,0
"2020-04-08 11:22:45+00",8.5,9.5,,54,-338,164,23,999.54,53,1.2
"2020-04-08 11:27:45+00",7.8,8.8,,54.2,-319,135,24,999.4,53.3,5.5
"2020-04-08 11:32:45+00",7.7,8.7,,54.1,-315,120,21,999.5,53.2,4.2
"2020-04-08 11:37:45+00",7.0,8.0,,54.1,-283,128,17,999.42,53.2,10.3
"2020-04-08 11:42:45+00",6.1,6.1,,54.1,-252,88,13,999.37,53.2,17.6
"2020-04-08 11:47:45+00",6.4,7.4,,54.2,-245,147,16,999.57,53.3,23.1
"2020-04-08 11:52:45+00",4.6,5.6,,54.3,-182,75,13,999.39,53.5,35.8
"2020-04-08 11:57:45+00",5.4,6.4,,54.3,-211,96,20,999.42,53.7,64.8
"2020-04-08 12:02:45+00",6.6,6.6,,54.5,-250,150,22,999.46,54,79.1
"2020-04-08 12:07:45+00",7.1,8.1,,54.6,-285,139,19,999.55,54.5,102.9
"2020-04-08 12:12:45+00",7.6,8.6,,54.5,-290,182,28,999.59,54.8,80.4
"2020-04-08 12:17:45+00",7.4,8.4,,54.4,-277,175,25,999.58,54.7,71.8
"2020-04-08 12:22:45+00",7.2,8.2,,54.2,-282,154,11,999.56,54.6,84.4
"2020-04-08 12:27:45+00",7.2,8.2,,54.2,-304,99,17,999.48,54.5,69
"2020-04-08 12:32:45+00",7.2,8.2,,54.2,-311,61,19,999.56,54.3,64.2
"2020-04-08 12:37:45+00",7.3,8.3,,54.3,-315,46,16,999.52,54.1,70.6
"2020-04-08 12:42:45+00",9.5,10.5,,54.8,-416,96,15,999.53,54.2,74
"2020-04-08 12:47:45+00",10.3,11.3,,55.2,-428,171,36,999.56,54.3,86
"2020-04-08 12:52:45+00",11.0,12.0,,55.5,-971,-705,-462,999.67,54.5,113.6
"2020-04-08 12:57:45+00",13.4,14.4,,56,177,1672,789,999.61,54.6,118.6
"2020-04-08 13:07:45+00",13.5,14.5,,56.5,374,1905,950,999.37,54.9,93.4
"2020-04-08 13:12:45+00",13.2,14.2,,56.5,-538,238,47,999.4,55,108.3
"2020-04-08 13:17:45+00",13.2,14.2,,56.6,-541,247,46,999.59,55.2,121.5
"2020-04-08 13:22:45+00",13.8,14.8,,56.6,-578,231,46,999.62,55.3,101.4
"2020-04-08 13:27:45+00",14.3,15.3,,56.9,-582,273,45,999.65,55.6,211.6
"2020-04-08 13:32:45+00",14.0,15.0,,57,-585,257,43,999.73,56,272.5
"2020-04-08 13:37:45+00",15.0,17.0,,57.2,-616,282,46,999.74,56.5,237.1
"2020-04-08 13:42:45+00",14.9,16.9,,57.3,-629,252,48,999.85,56.8,303.8
"2020-04-08 13:47:45+00",14.8,15.8,,57.3,-624,245,46,999.93,57.1,317.9
"2020-04-08 13:52:45+00",14.9,15.9,,57.4,-616,271,54,1000,57.4,310.4
"2020-04-08 13:57:45+00",15.4,17.4,,57.6,-631,298,51,1000.1,57.7,220
"2020-04-08 14:02:45+00",14.8,15.8,,57.7,-603,291,45,1000.21,58,367.5
"2020-04-08 14:07:45+00",15.8,16.8,,58,-633,350,55,1000.29,58.5,385.7
"2020-04-08 14:12:45+00",15.1,18.1,,58.1,-590,359,45,1000.2,58.9,346.9
"2020-04-08 14:17:45+00",13.9,14.9,,58.3,-529,355,45,1000.23,59.1,385.4
"2020-04-08 14:22:45+00",16.2,18.2,,59.2,-558,469,75,1000.24,59.4,421.7
"2020-04-08 14:27:45+00",16.0,20.0,,59.6,-561,441,52,1000.22,59.6,430.9
"2020-04-08 14:32:45+00",15.1,16.1,,59.9,-546,418,54,1000.22,60.1,435
"2020-04-08 14:37:45+00",15.1,17.1,,59.9,-514,438,55,1000.17,60.3,436.1
"2020-04-08 14:42:45+00",14.9,15.9,,59.7,-545,406,50,1000.24,60.5,446.2
"2020-04-08 14:47:45+00",16.3,18.3,,60.1,-540,485,56,1000.32,60.7,451.6
"2020-04-08 14:52:45+00",17.4,20.4,,60.5,-604,500,64,1000.28,60.8,346
"2020-04-08 14:57:45+00",13.4,14.4,,60.7,-388,443,47,1000.23,61.4,467.3
"2020-04-08 15:02:45+00",14.0,15.0,,61.1,-393,481,47,1000.15,61.9,472
"2020-04-08 15:07:45+00",17.0,19.0,,61.6,-412,628,49,1000.18,62.3,495.1
"2020-04-08 15:12:45+00",17.8,20.8,,61.9,-473,635,61,1000.28,62.8,513.7
"2020-04-08 15:17:45+00",13.0,14.0,,61.8,-381,431,55,1000.35,63.2,145.2
"2020-04-08 15:22:45+00",14.6,16.6,,61.4,-437,467,49,1000.38,62.7,238.7
"2020-04-08 15:27:45+00",15.5,18.5,,62.1,-458,524,78,1000.36,62.8,542.6
"2020-04-08 15:32:45+00",15.9,17.9,,62.3,-483,519,60,1000.42,63.1,540.9
"2020-04-08 15:37:45+00",16.4,18.4,,63.5,-419,589,50,1000.28,64.2,548.6
"2020-04-08 15:42:45+00",17.3,19.3,,63,-472,610,64,1000.3,64,576.9
"2020-04-08 15:47:45+00",16.5,19.5,,63.7,-394,609,63,1000.16,64.6,565
"2020-04-08 15:52:45+00",16.3,19.3,,64,-419,576,49,1000.11,65.2,534.2
"2020-04-08 15:57:45+00",13.9,16.9,,63.9,-347,508,53,1000.06,65.4,610.9
"2020-04-08 16:02:45+00",13.7,15.7,,63.8,-388,464,54,1000.11,65.4,462.1
"2020-04-08 16:07:45+00",18.2,20.2,,64.1,-495,637,58,999.93,65.5,575.9
"2020-04-08 16:12:45+00",16.4,18.4,,64.8,-423,596,75,999.93,66,573.8
"2020-04-08 16:17:45+00",20.5,23.5,,64.5,-637,663,76,1000.07,65.9,562.3
"2020-04-08 16:22:45+00",17.4,20.4,,65,-459,623,63,1000.05,66,561.1
"2020-04-08 16:27:45+00",16.2,20.2,,65.2,-483,543,62,1000.07,66.6,608.7
"2020-04-08 16:32:45+00",15.2,17.2,,65,-432,504,55,1000.08,66.6,516.2
"2020-04-08 16:37:45+00",18.4,20.4,,65.9,-507,642,71,1000.08,67,587
"2020-04-08 16:42:45+00",15.2,17.2,,65.6,-469,488,59,999.96,67.4,370.2
"2020-04-08 16:47:45+00",14.3,16.3,,66,-384,502,40,999.98,67.3,541.1
"2020-04-08 16:52:45+00",13.9,18.9,,66.2,-342,516,55,999.94,67.8,545.2
"2020-04-08 16:57:45+00",15.1,16.1,,66.5,-452,497,50,999.9,68.2,518
"2020-04-08 17:02:45+00",14.1,17.1,,65.6,-449,446,52,999.91,67.9,483.7
"2020-04-08 17:07:45+00",16.5,18.5,,66.4,-567,467,60,999.99,68.2,627.5
"2020-04-08 17:12:45+00",14.6,17.6,,66.4,-438,462,71,1000.08,68.3,461.1
"2020-04-08 17:17:45+00",15.2,17.2,,67.5,-376,554,59,1000.1,68.8,204.7
"2020-04-08 17:22:45+00",16.3,18.3,,67.6,-257,670,24,1000.14,68.7,573.4
"2020-04-08 17:27:45+00",14.0,15.0,,67.4,-373,497,55,1000.15,69.2,605
"2020-04-08 17:32:45+00",12.2,14.2,,61.3,529,113,-4,1000.37,68.6,429.4
"2020-04-08 17:37:45+00",13.1,17.1,,57.4,540,33,-16,1000.29,65,422.5
"2020-04-08 17:42:45+00",17.0,19.0,,54.9,535,425,-195,1000.52,61.3,97.9
"2020-04-08 17:47:45+00",16.2,18.2,,54,721,23,11,1000.62,59.8,136.5
"2020-04-08 17:52:45+00",16.0,18.0,,54,713,114,33,1000.75,59.1,514
"2020-04-08 17:57:45+00",15.3,17.3,,54.4,685,71,32,1000.81,59.7,563.2
"2020-04-08 18:02:45+00",14.3,15.3,,54.3,645,-29,31,1000.83,59.2,470.2
"2020-04-08 18:07:45+00",13.8,15.8,,54,618,-72,23,1000.99,58.8,198.2
"2020-04-08 18:12:45+00",14.8,15.8,,53.8,672,-1,7,1001.07,58,456.9
"2020-04-08 18:17:45+00",15.2,17.2,,53.8,686,41,42,1000.94,58.3,376.3
"2020-04-08 18:22:45+00",14.4,15.4,,53.9,638,98,75,1000.88,58.7,162.2
"2020-04-08 18:27:45+00",18.0,19.0,,53.1,799,98,40,1001.05,58,96.3
"2020-04-08 18:32:45+00",17.0,20.0,,53,751,141,45,1001.1,57.6,298.2
"2020-04-08 18:37:45+00",16.4,17.4,,53.1,728,120,11,1001.02,57.6,354.1
"2020-04-08 18:42:45+00",14.3,16.3,,52.8,639,19,51,1001.04,57.2,119.5
"2020-04-08 18:47:45+00",14.9,15.9,,52.8,669,3,17,1001.15,56.8,111.2
"2020-04-08 18:52:45+00",14.0,16.0,,53.7,630,2,64,1001.16,57.7,486.2
"2020-04-08 18:57:45+00",14.7,17.7,,53.5,667,-11,66,1001,58.1,490
"2020-04-08 19:02:45+00",16.3,18.3,,53.3,722,52,24,1000.96,58.1,97
"2020-04-08 19:07:45+00",13.1,17.1,,52.7,575,100,51,1000.99,57.2,91.1
"2020-04-08 19:12:45+00",15.8,17.8,,52.6,692,139,12,1001.14,57.1,408.1
"2020-04-08 19:17:45+00",16.5,18.5,,52.7,738,70,8,1001.14,57.8,396.5
"2020-04-08 19:22:45+00",15.1,17.1,,52.7,-196,1319,-795,1001.12,57.8,395.7
"2020-04-08 19:27:45+00",13.0,14.0,,52,570,-31,12,1001.22,56.6,386.2
"2020-04-08 19:32:45+00",10.7,12.7,,52.4,-34,801,-432,1001.23,56.8,381.3
"2020-04-08 19:37:45+00",13.6,15.6,,51.8,448,228,-144,1001.16,56.6,351.1
"2020-04-08 19:42:45+00",14.2,15.2,,51.7,639,-39,7,1001.11,56.4,333
"2020-04-08 19:47:45+00",14.2,16.2,,51.6,375,354,-241,1001.22,56.2,320.1
"2020-04-08 19:52:45+00",14.9,16.9,,51.8,594,47,-72,1001.15,55.6,314.7
"2020-04-08 19:57:45+00",14.6,15.6,,51.8,-255,1463,-840,1001.1,55.4,303.9
"2020-04-08 20:02:45+00",14.8,16.8,,51.7,656,-13,-12,1001.25,55.4,296.8
"2020-04-08 20:07:45+00",13.1,15.1,,51.8,-63,1032,-602,1001.22,55.4,290.6
"2020-04-08 20:12:45+00",14.8,15.8,,51.7,453,302,-195,1001.15,55.1,283.8
"2020-04-08 20:17:45+00",13.9,14.9,,51.9,527,85,-79,1001.25,55.1,273.5
"2020-04-08 20:22:45+00",13.4,15.4,,51.7,339,349,-221,1001.32,54.8,265.9
"2020-04-08 20:27:45+00",14.3,16.3,,51.9,645,-9,37,1001.31,55.3,260.5
"2020-04-08 20:32:45+00",11.5,13.5,,51.9,456,38,-14,1001.39,55.5,247.6
"2020-04-08 20:37:45+00",12.7,14.7,,51.8,40,784,-481,1001.37,54.9,205.8
"2020-04-08 20:42:45+00",13.0,14.0,,51.9,111,661,-396,1001.55,54.9,206.1
"2020-04-08 20:52:45+00",14.1,15.1,,51.5,-1892,3759,-2231,1001.71,54.2,210.9
"2020-04-08 20:57:45+00",14.4,15.4,,51.5,-1783,3658,-2201,1001.73,54.2,202.4
"2020-04-08 21:02:45+00",13.9,14.9,,51.4,-1919,3531,-2183,1001.92,54,191.7
"2020-04-08 21:07:45+00",13.9,15.9,,51.4,-2050,3938,-2303,1001.81,53.9,183.9
"2020-04-08 21:12:45+00",14.5,16.5,,51.4,-2123,4218,-2401,1001.81,53.8,173
"2020-04-08 21:17:45+00",15.3,17.3,,51.4,-2017,3714,-2315,1001.77,53.7,167.3
"2020-04-08 21:32:45+00",15.1,17.1,,51.1,-1830,3359,-2066,1002.04,53.2,137.1
"2020-04-08 22:02:45+00",14.2,17.2,,50.4,-1998,3951,-2285,1002.57,51.6,48.5
"2020-04-08 22:12:45+00",13.6,16.6,,49.9,-1267,2568,-1559,1002.94,51,0
"2020-04-08 22:17:45+00",12.6,15.6,,49.9,-1097,2514,-1462,1003.27,50.8,0
"2020-04-08 22:22:45+00",13.1,15.1,,49.9,-937,2538,-1442,1003.73,50.7,0
"2020-04-08 22:27:45+00",11.1,12.1,,49.7,-680,1686,-1041,1003.74,50.5,0
"2020-04-08 22:32:45+00",10.2,13.2,,49.7,-703,1905,-1055,1004.07,50.5,0
"2020-04-08 22:37:45+00",10.8,11.8,,49.5,457,-147,27,1003.92,50.3,0
"2020-04-08 22:42:45+00",10.4,11.4,,49.4,455,-105,4,1003.98,50,0
"2020-04-08 22:47:45+00",11.3,13.3,,49.3,463,-191,-6,1003.96,49.7,0
"2020-04-08 22:52:45+00",12.9,15.9,,49.1,455,-343,0,1003.74,49.4,0
"2020-04-08 22:57:45+00",13.0,15.0,,49.1,467,-354,-10,1003.58,49.3,0
"2020-04-08 23:02:45+00",13.6,15.6,,49.1,495,-328,-13,1003.65,49.2,0
"2020-04-08 23:07:45+00",13.7,15.7,,49.1,507,-332,-13,1003.7,49.1,0
"2020-04-08 23:12:45+00",12.0,14.0,,49.1,500,-184,10,1003.82,49.2,0
"2020-04-08 23:17:45+00",11.1,12.1,,49.1,478,-140,9,1004.02,49.1,0
"2020-04-08 23:22:45+00",10.9,11.9,,49,453,-167,18,1004.08,49,0
"2020-04-08 23:27:45+00",12.6,13.6,,48.9,460,-314,-5,1003.92,48.9,0
"2020-04-08 23:32:45+00",11.3,13.3,,48.7,448,-223,5,1004.05,48.7,0
"2020-04-08 23:37:45+00",10.9,11.9,,48.7,354,-329,15,1004.04,48.5,0
"2020-04-08 23:42:45+00",9.8,10.8,,48.7,240,-348,-1,1004.33,48.5,0
"2020-04-08 23:47:45+00",11.0,12.0,,48.7,318,-361,-26,1004.29,48.4,0
"2020-04-08 23:52:45+00",13.4,14.4,,48.6,492,-336,-1,1004.03,48.4,0
"2020-04-08 23:57:45+00",12.9,13.9,,48.7,479,-304,-21,1004.07,48.4,0
